Weather History for KLWM - July, 2013

Change the Weather History Date:

Wednesday, July 31, 2013

  Actual Average Record
Temperature  
Mean Temperature 72 °F -  
Max Temperature 82 °F 81 °F 102 °F (2008)
Min Temperature 62 °F 61 °F 48 °F (1932)
Cooling Degree Days 7    
Growing Degree Days 22 (Base 50)    
Moisture  
Dew Point 57 °F    
Average Humidity 62    
Maximum Humidity 84    
Minimum Humidity 38    
Precipitation  
Precipitation 0.00 in - - ()
Sea Level Pressure  
Sea Level Pressure 30.10 in    
Wind  
Wind Speed 2 mph (SW)    
Max Wind Speed 7 mph    
Max Gust Speed -    
Visibility 10 miles    
Events      
Averages and records for this station are not official NWS values.
T = Trace of Precipitation, MM = Missing Value Source: NWS Daily Summary

Daily Weather History Graph

Daily Weather History Graph

Search for Another Location

Airport or City:

Trip Planner

Search our weather history database for the weather conditions in past years. The results will help you decide how hot, cold, wet, or windy it might be!

Date:

Astronomy

Jul. 31, 2013 Rise Set
Actual Time 5:35 AM EDT 8:05 PM EDT
Civil Twilight 5:03 AM EDT 8:37 PM EDT
Nautical Twilight 4:23 AM EDT 9:17 PM EDT
Astronomical Twilight 3:37 AM EDT 10:02 PM EDT
Moon 12:28 AM EDT (7/31) 3:19 PM EDT (7/31)
Length of Visible Light 15h 34m
Length of Day
14h 30m
Waning Crescent, 32% of the Moon is Illuminated
Jul 31
Waning Crescent
Aug 6
New
Aug 14
First Quarter
Aug 20
Full
Aug 28
Last Quarter

Hourly Weather History & Observations

Time (EDT) Temp. Heat Index Dew Point Humidity Pressure Visibility Wind Dir Wind Speed Gust Speed Precip Events Conditions
12:54 AM 66.0 °F - 59.0 °F 78% 30.09 in 10.0 mi SSW 3.5 mph - N/A   Clear
1:54 AM 64.9 °F - 57.9 °F 78% 30.09 in 10.0 mi Calm Calm - N/A   Clear
2:54 AM 64.0 °F - 57.9 °F 80% 30.09 in 10.0 mi SW 3.5 mph - N/A   Clear
3:54 AM 63.0 °F - 57.9 °F 84% 30.10 in 10.0 mi SSW 3.5 mph - N/A   Clear
4:54 AM 62.1 °F - 57.0 °F 84% 30.11 in 10.0 mi Calm Calm - N/A   Partly Cloudy
5:54 AM 62.1 °F - 57.0 °F 84% 30.13 in 10.0 mi Calm Calm - N/A   Clear
6:54 AM 64.9 °F - 57.9 °F 78% 30.14 in 10.0 mi Calm Calm - N/A   Clear
7:54 AM 69.1 °F - 57.0 °F 65% 30.15 in 10.0 mi Calm Calm - N/A   Clear
8:54 AM 73.0 °F - 57.0 °F 57% 30.15 in 10.0 mi NNW 5.8 mph - N/A   Clear
9:54 AM 75.0 °F - 55.9 °F 51% 30.15 in 10.0 mi NW 4.6 mph - N/A   Clear
10:54 AM 75.9 °F - 53.1 °F 45% 30.13 in 10.0 mi WNW 3.5 mph - N/A   Clear
11:54 AM 77.0 °F - 53.1 °F 43% 30.12 in 10.0 mi Calm Calm - N/A   Clear
12:54 PM 80.1 °F 80.0 °F 54.0 °F 40% 30.11 in 10.0 mi Calm Calm - N/A   Clear
1:54 PM 79.0 °F - 54.0 °F 42% 30.10 in 10.0 mi WNW 3.5 mph - N/A   Scattered Clouds
2:54 PM 80.1 °F 80.0 °F 54.0 °F 40% 30.09 in 10.0 mi SW 4.6 mph - N/A   Mostly Cloudy
3:54 PM 82.0 °F 81.3 °F 54.0 °F 38% 30.08 in 10.0 mi WSW 4.6 mph - N/A   Overcast
4:54 PM 82.0 °F 81.6 °F 55.9 °F 41% 30.07 in 10.0 mi SSW 3.5 mph - N/A   Partly Cloudy
5:54 PM 79.0 °F - 59.0 °F 50% 30.07 in 10.0 mi SE 4.6 mph - N/A   Clear
6:54 PM 73.9 °F - 59.0 °F 59% 30.07 in 10.0 mi ESE 6.9 mph - N/A   Clear
7:54 PM 72.0 °F - 59.0 °F 64% 30.06 in 10.0 mi Variable 3.5 mph - N/A   Clear
8:54 PM 71.1 °F - 59.0 °F 66% 30.06 in 10.0 mi SE 3.5 mph - N/A   Clear
9:54 PM 70.0 °F - 60.1 °F 71% 30.06 in 10.0 mi Calm Calm - N/A   Clear
10:54 PM 69.1 °F - 61.0 °F 75% 30.06 in 10.0 mi Calm Calm - N/A   Clear
11:54 PM 66.9 °F - 61.0 °F 81% 30.06 in 10.0 mi Calm Calm - N/A   Clear